"2009-07-26 00:00:00",1094689,5.952,63.38,0.866,0.165,18.39,107.4634,18.38,19.47,73.02,0,110.7,13.26,19.20,25.4
"2009-07-26 00:00:30",1094690,6.05,63.52,0.897,0.092,18.42,107.4578,18.37,19.46,73.12,0,110.7,13.26,19.19,25.5
"2009-07-26 00:01:00",1094691,6.081,62.51,0.653,0.15,18.42,107.4378,18.32,19.43,73.22,0,110.7,13.26,19.13,24.5
"2009-07-26 00:01:30",1094692,5.84,62.23,0.693,0.069,18.38,107.4302,18.3,19.42,73.32,0,110.7,13.26,19.11,24.2
"2009-07-26 00:02:00",1094693,6.106,59.56,1.395,0.083,18.45,107.4299,18.3,19.42,73.32,0,110.7,13.26,19.11,21.6
"2009-07-26 00:02:30",1094694,5.979,59.71,1.322,0.086,18.48,107.4299,18.3,19.39,73.26,0,110.7,13.26,19.11,21.7
"2009-07-26 00:03:00",1094695,5.985,58.75,1.489,0.095,18.38,107.4294,18.3,19.39,73.2,0,110.7,13.26,19.11,20.8
"2009-07-26 00:03:30",1094696,5.933,56.87,0.957,0.049,18.34,107.4184,18.27,19.38,73.33,0,110.7,13.26,19.08,18.9
"2009-07-26 00:04:00",1094697,6.026,56.22,0.62,0.108,18.39,107.4082,18.24,19.36,73.56,0,110.7,13.25,19.06,18.2
"2009-07-26 00:04:30",1094698,6.169,56.07,1.166,0.131,18.46,107.3992,18.22,19.35,73.64,0,110.7,13.25,19.03,18.1
"2009-07-26 00:05:00",1094699,6.239,54.99,0.991,0.106,18.41,107.3961,18.21,19.35,73.87,0,110.7,13.25,19.03,17.0
"2009-07-26 00:05:30",1094700,6.304,55.69,0.571,0.115,18.47,107.3961,18.21,19.32,74.12,0,110.7,13.25,19.03,17.7
"2009-07-26 00:06:00",1094701,6.435,56.74,0.753,0.069,18.44,107.3961,18.21,19.3,74.26,0,110.7,13.25,19.03,18.7
"2009-07-26 00:06:30",1094702,6.465,58.85,0.77,0.071,18.39,107.3961,18.21,19.3,74.2,0,110.7,13.25,19.03,20.8
"2009-07-26 00:07:00",1094703,6.381,59.04,1.084,0.05,18.47,107.3961,18.21,19.29,73.97,0,110.7,13.25,19.03,21.0
"2009-07-26 00:07:30",1094704,6.603,55.26,1.214,0.137,18.34,107.3914,18.2,19.27,73.98,0,110.7,13.25,19.01,17.3
"2009-07-26 00:08:00",1094705,6.763,53.64,0.708,0.07,18.23,107.3855,18.18,19.28,74.26,0,110.7,13.25,19.00,15.6
"2009-07-26 00:08:30",1094706,6.845,52.79,0.838,0.066,18.34,107.3683,18.14,19.26,74.48,0,110.7,13.25,18.95,14.8
"2009-07-26 00:09:00",1094707,6.901,53.3,0.797,0.075,18.4,107.3624,18.12,19.25,74.73,0,110.7,13.25,18.94,15.3
"2009-07-26 00:09:30",1094708,6.998,54.93,0.631,0.053,18.49,107.3624,18.12,19.22,74.8,0,110.7,13.26,18.94,16.9
"2009-07-26 00:10:00",1094709,7.044,53.49,1.004,0.1,18.44,107.3618,18.12,19.21,75.02,0,110.7,13.26,18.94,15.5
"2009-07-26 00:10:30",1094710,7.192,51.08,1.184,0.111,18.4,107.3449,18.08,19.18,75.25,0,110.7,13.26,18.89,13.1
"2009-07-26 00:11:00",1094711,7.304,47.77,1.02,0.063,18.35,107.3308,18.04,19.18,75.39,0,110.7,13.26,18.86,9.8
"2009-07-26 00:11:30",1094712,7.523,45.27,0.466,0.091,18.31,107.3295,18.04,19.16,75.63,0,110.7,13.26,18.85,7.3
"2009-07-26 00:12:00",1094713,7.566,46.75,1.317,0.045,18.31,107.329,18.04,19.16,75.79,0,110.7,13.26,18.85,8.8
"2009-07-26 00:12:30",1094714,7.463,48.89,0.512,0.066,18.33,107.305,17.98,19.13,75.78,0,110.7,13.26,18.79,10.9
"2009-07-26 00:13:00",1094715,7.567,49.31,0.541,0.117,18.26,107.2951,17.95,19.1,75.79,0,110.7,13.26,18.77,11.3
"2009-07-26 00:13:30",1094716,7.598,49.05,0.592,0.097,18.2,107.292,17.94,19.08,75.88,0,110.7,13.26,18.76,11.0
"2009-07-26 00:14:00",1094717,7.569,48.6,0.857,0.117,18.29,107.2653,17.88,19.04,76,0,110.7,13.26,18.69,10.6
"2009-07-26 00:14:30",1094718,7.461,49.95,1.17,0.07,18.21,107.2632,17.87,19,76.18,0,110.7,13.26,18.68,12.0
"2009-07-26 00:15:00",1094719,7.494,50.77,0.395,0.077,18.16,107.2555,17.85,18.99,76.31,0,110.7,13.26,18.66,12.8
"2009-07-26 00:15:30",1094720,7.451,50.85,0.714,0.136,18.21,107.2299,17.78,18.94,76.55,0,110.7,13.26,18.60,12.8
"2009-07-26 00:16:00",1094721,7.542,51.03,0.762,0.074,18.21,107.2312,17.79,18.93,76.71,0,110.7,13.26,18.60,13.0
"2009-07-26 00:16:30",1094722,7.46,51.34,0.524,0.067,18.23,107.2216,17.76,18.89,76.86,0,110.7,13.26,18.58,13.3
"2009-07-26 00:17:00",1094723,7.503,52.05,1.028,0.102,18.32,107.2017,17.71,18.87,76.99,0,110.7,13.26,18.53,14.0
"2009-07-26 00:17:30",1094724,7.484,53.47,0.853,0.1,18.34,107.2008,17.71,18.85,77.16,0,110.7,13.26,18.52,15.5
"2009-07-26 00:18:00",1094725,7.665,54.14,0.891,0.211,18.21,107.2001,17.71,18.82,77.36,0,110.7,13.26,18.52,16.1
"2009-07-26 00:18:30",1094726,8.33,53.39,1.245,0.179,18.04,107.1855,17.67,18.81,78.18,0,110.7,13.26,18.48,15.4
"2009-07-26 00:19:00",1094727,8.31,53.29,1.019,0.209,18.01,107.1776,17.65,18.77,79.11,0,110.7,13.26,18.46,15.3
"2009-07-26 00:19:30",1094728,8.29,53.79,0.489,0.064,17.93,107.1745,17.64,18.78,79.75,0,110.7,13.26,18.46,15.8
"2009-07-26 00:20:00",1094729,8.13,54.18,0.546,0.04,17.91,107.1698,17.63,18.74,80.2,0,110.7,13.26,18.44,16.2
"2009-07-26 00:20:30",1094730,7.948,55.56,0.71,0.041,17.96,107.146,17.57,18.72,80.3,0,110.7,13.26,18.38,17.6
"2009-07-26 00:21:00",1094731,7.941,57.52,0.52,0.054,17.97,107.1471,17.57,18.7,80.3,0,110.7,13.26,18.39,19.5
"2009-07-26 00:21:30",1094732,7.951,58.67,0.959,0.091,18.04,107.1317,17.53,18.66,80.5,0,110.7,13.26,18.35,20.7
"2009-07-26 00:22:00",1094733,8.17,59.51,1.339,0.061,17.99,107.1157,17.49,18.64,80.5,0,110.7,13.26,18.30,21.5
"2009-07-26 00:22:30",1094734,8.06,58.08,0.873,0.054,17.93,107.1142,17.49,18.6,80.8,0,110.7,13.26,18.30,20.1
"2009-07-26 00:23:00",1094735,8.23,56.86,0.595,0.06,17.91,107.0852,17.41,18.59,81.1,0,110.7,13.26,18.23,18.9
"2009-07-26 00:23:30",1094736,8.37,55.93,0.182,0.037,17.82,107.083,17.41,18.54,80.9,0,110.7,13.26,18.22,17.9
"2009-07-26 00:24:00",1094737,8.57,56.75,0.469,0.093,17.87,107.0588,17.35,18.5,80.7,0,110.7,13.26,18.16,18.8
"2009-07-26 00:24:30",1094738,8.73,56.5,0.496,0.047,17.92,107.053,17.33,18.48,81.1,0,110.7,13.26,18.14,18.5
"2009-07-26 00:25:00",1094739,8.76,54.85,0.839,0.118,17.97,107.0336,17.28,18.43,81.7,0,110.7,13.26,18.09,16.8
"2009-07-26 00:25:30",1094740,8.82,55.05,0.481,0.122,17.8,107.0225,17.25,18.43,82.4,0,110.7,13.26,18.07,17.0
"2009-07-26 00:26:00",1094741,8.96,54.63,0.522,0.107,17.88,107.011,17.22,18.39,82.9,0,110.7,13.26,18.04,16.6
"2009-07-26 00:26:30",1094742,9.16,55.24,0.536,0.058,17.78,106.9914,17.17,18.35,83,0,110.7,13.27,17.99,17.2
"2009-07-26 00:27:00",1094743,9.17,54.83,0.584,0.043,17.75,106.974,17.13,18.29,82.8,0,110.7,13.27,17.94,16.8
"2009-07-26 00:27:30",1094744,9.26,55.63,0.327,0.123,17.84,106.9585,17.09,18.25,82.8,0,110.7,13.27,17.90,17.6
"2009-07-26 00:28:00",1094745,9.32,54.22,1.028,0.067,17.76,106.9366,17.03,18.21,82.9,0,110.7,13.27,17.84,16.2
"2009-07-26 00:28:30",1094746,9.18,52.31,0.855,0.103,17.8,106.9251,17,18.17,83.3,0,110.7,13.27,17.81,14.3
"2009-07-26 00:29:00",1094747,8.91,50.65,0.65,0.12,17.69,106.9076,16.96,18.14,84,0,110.7,13.27,17.77,12.7
"2009-07-26 00:29:30",1094748,8.71,51.26,1.668,0.152,17.72,106.8919,16.92,18.11,84.7,0,110.7,13.27,17.73,13.3
"2009-07-26 00:30:00",1094749,8.39,49.54,1.868,0.186,17.57,106.8843,16.9,18.08,85.2,0,110.7,13.27,17.71,11.5
"2009-07-26 00:30:30",1094750,8.36,51.35,0.901,0.168,17.63,106.8595,16.84,18.04,85.7,0,110.6,13.27,17.65,13.3
"2009-07-26 00:31:00",1094751,8.48,52.97,1.199,0.167,17.82,106.8525,16.82,18.01,86.1,0,110.6,13.27,17.63,15.0
"2009-07-26 00:31:30",1094752,8.09,53.45,1.831,0.205,17.7,106.8252,16.75,17.97,86.3,0,110.7,13.27,17.56,15.5
"2009-07-26 00:32:00",1094753,7.543,51.94,2.398,0.259,17.55,106.8243,16.74,17.92,86.6,0,110.6,13.27,17.56,13.9
"2009-07-26 00:32:30",1094754,7.872,51.5,2.752,0.557,17.58,106.7984,16.68,17.89,86.9,0,110.6,13.27,17.49,13.5
"2009-07-26 00:33:00",1094755,7.986,54.7,1.717,0.202,17.78,106.7903,16.66,17.85,87.1,0,110.6,13.27,17.47,16.7
"2009-07-26 00:33:30",1094756,8.29,55.71,1.042,0.132,17.84,106.7677,16.6,17.82,87.1,0,110.6,13.27,17.41,17.7
"2009-07-26 00:34:00",1094757,8.66,55.63,0.885,0.125,17.86,106.7568,16.57,17.77,87,0,110.6,13.28,17.38,17.6
"2009-07-26 00:34:30",1094758,8.3,55.78,0.555,0.092,17.83,106.7531,16.56,17.73,87.1,0,110.6,13.28,17.37,17.8
"2009-07-26 00:35:00",1094759,8.81,51.6,1.572,0.165,17.62,106.732,16.51,17.69,87.3,0,110.6,13.28,17.32,13.6
"2009-07-26 00:35:30",1094760,9.04,48.88,0.733,0.102,17.58,106.7233,16.49,17.67,87.7,0,110.6,13.28,17.30,10.9
"2009-07-26 00:36:00",1094761,8.64,46.78,1.214,0.153,17.54,106.723,16.49,17.65,88.1,0,110.6,13.28,17.29,8.8
"2009-07-26 00:36:30",1094762,8.18,47.42,1.185,0.17,17.48,106.7049,16.44,17.63,88.3,0,110.6,13.28,17.25,9.4
"2009-07-26 00:37:00",1094763,8.63,48.66,1.524,0.259,17.49,106.6892,16.4,17.6,88.7,0,110.6,13.28,17.21,10.7
"2009-07-26 00:37:30",1094764,8.66,49.48,1.228,0.145,17.55,106.6892,16.4,17.59,89,0,110.6,13.27,17.21,11.5
"2009-07-26 00:38:00",1094765,8.84,49.07,2.57,0.253,17.53,106.6869,16.39,17.56,89.3,0,110.6,13.27,17.20,11.1
"2009-07-26 00:38:30",1094766,8.6,46.25,2.129,0.277,17.4,106.6669,16.34,17.54,89.7,0,110.6,13.27,17.15,8.2
"2009-07-26 00:39:00",1094767,8.85,46.25,1.624,0.419,17.42,106.6554,16.31,17.52,90,0,110.6,13.27,17.12,8.2
"2009-07-26 00:39:30",1094768,8.54,47.61,1.405,0.15,17.49,106.6551,16.31,17.5,90.2,0,110.6,13.27,17.12,9.6
"2009-07-26 00:40:00",1094769,8.72,49.13,0.532,0.071,17.55,106.6351,16.26,17.48,90.4,0,110.6,13.27,17.07,11.1
"2009-07-26 00:40:30",1094770,8.93,50.32,0.638,0.134,17.95,106.6216,16.23,17.44,90.5,0,110.6,13.27,17.03,12.3
"2009-07-26 00:41:00",1094771,8.72,48.63,0.707,0.103,17.71,106.6196,16.22,17.4,90.6,0,110.6,13.27,17.03,10.6
"2009-07-26 00:41:30",1094772,8.76,51,0.436,0.082,17.9,106.6059,16.19,17.38,90.7,0,110.6,13.27,16.99,13.0
"2009-07-26 00:42:00",1094773,8.9,50.57,0.91,0.087,17.89,106.5884,16.14,17.34,90.8,0,110.6,13.28,16.95,12.6
"2009-07-26 00:42:30",1094774,8.79,49.28,0.54,0.125,17.64,106.5887,16.14,17.32,90.9,0,110.6,13.28,16.95,11.3
"2009-07-26 00:43:00",1094775,8.93,49.29,0.998,0.093,17.41,106.5911,16.15,17.29,91.1,0,110.6,13.28,16.96,11.3
"2009-07-26 00:43:30",1094776,9.09,49.99,0.864,0.371,17.57,106.5857,16.13,17.28,91.2,0,110.6,13.28,16.94,12.0
"2009-07-26 00:44:00",1094777,9.44,48.65,1.042,0.256,17.54,106.5707,16.09,17.25,91.3,0,110.6,13.28,16.90,10.7
"2009-07-26 00:44:30",1094778,9.67,48.74,0.986,0.108,17.52,106.5694,16.09,17.23,91.5,0,110.6,13.28,16.90,10.7
"2009-07-26 00:45:00",1094779,9.64,48.83,1.081,0.207,17.44,106.5724,16.1,17.2,91.5,0,110.6,13.28,16.91,10.8
"2009-07-26 00:45:30",1094780,9.82,52.07,1.144,0.15,17.69,106.5642,16.08,17.19,91.6,0,110.6,13.28,16.89,14.1
"2009-07-26 00:46:00",1094781,9.69,52.39,1.505,0.053,17.61,106.5469,16.03,17.15,91.6,0,110.6,13.29,16.84,14.4
"2009-07-26 00:46:30",1094782,9.53,50.75,0.873,0.074,17.47,106.547,16.03,17.11,91.6,0,110.6,13.29,16.84,12.8
"2009-07-26 00:47:00",1094783,9.44,49.94,0.528,0.069,17.51,106.5399,16.02,17.1,91.6,0,110.6,13.29,16.82,11.9
"2009-07-26 00:47:30",1094784,9.28,52.54,0.864,0.106,17.87,106.5202,15.97,17.06,91.7,0,110.6,13.29,16.77,14.5
"2009-07-26 00:48:00",1094785,9.04,52.63,0.53,0.118,17.78,106.5156,15.95,17.04,91.7,0,110.6,13.29,16.76,14.6
"2009-07-26 00:48:30",1094786,9.2,53.06,0.044,0.053,17.7,106.5159,15.95,17.02,91.7,0,110.6,13.29,16.76,15.1
"2009-07-26 00:49:00",1094787,8.91,53.5,0.76,0.116,17.77,106.518,15.96,17,91.7,0,110.6,13.29,16.77,15.5
"2009-07-26 00:49:30",1094788,9.14,53.75,1.352,0.173,17.69,106.5195,15.96,16.99,91.7,0,110.6,13.29,16.77,15.8
"2009-07-26 00:50:00",1094789,9.09,50.27,0.738,0.115,17.47,106.5204,15.97,16.96,91.8,0,110.6,13.29,16.77,12.3
"2009-07-26 00:50:30",1094790,8.81,49.73,0.613,0.072,17.47,106.521,15.97,16.96,91.9,0,110.6,13.29,16.78,11.7
"2009-07-26 00:51:00",1094791,8.96,48.69,1.49,0.188,17.27,106.5225,15.97,16.97,92.1,0,110.6,13.29,16.78,10.7
"2009-07-26 00:51:30",1094792,8.2,47.85,1.125,0.176,17.42,106.5225,15.97,16.97,92.2,0,110.6,13.29,16.78,9.8
"2009-07-26 00:52:00",1094793,8.26,49.5,0.421,0.232,17.62,106.5225,15.97,16.96,92.3,0,110.6,13.29,16.78,11.5
"2009-07-26 00:52:30",1094794,8.93,49.84,0.26,0.065,17.87,106.5216,15.97,16.96,92.3,0,110.6,13.29,16.78,11.8
"2009-07-26 00:53:00",1094795,8.45,50.16,0.559,0.162,17.6,106.5222,15.97,16.95,92.4,0,110.6,13.29,16.78,12.2
"2009-07-26 00:53:30",1094796,8.31,51.38,0.658,0.09,17.5,106.5225,15.97,16.96,92.5,0,110.6,13.3,16.78,13.4
"2009-07-26 00:54:00",1094797,8.45,51.55,0.854,0.226,17.78,106.5216,15.97,16.94,92.6,0,110.6,13.3,16.78,13.5
"2009-07-26 00:54:30",1094798,8.63,52.77,0.863,0.15,17.82,106.518,15.96,16.95,92.7,0,110.6,13.29,16.77,14.8
"2009-07-26 00:55:00",1094799,8.61,50.6,0.738,0.088,17.62,106.5154,15.95,16.95,92.7,0,110.6,13.29,16.76,12.6
"2009-07-26 00:55:30",1094800,8.3,50.79,0.557,0.063,17.77,106.5121,15.94,16.95,92.7,0,110.6,13.29,16.75,12.8
"2009-07-26 00:56:00",1094801,8.46,52.32,1.285,0.165,17.94,106.5044,15.93,16.94,92.7,0,110.6,13.29,16.73,14.3
"2009-07-26 00:56:30",1094802,8.54,52.09,0.837,0.072,17.83,106.4974,15.91,16.93,92.7,0,110.6,13.29,16.71,14.1
"2009-07-26 00:57:00",1094803,8.29,52.74,1.41,0.068,17.72,106.4954,15.9,16.91,92.6,0,110.6,13.29,16.71,14.7
"2009-07-26 00:57:30",1094804,8.6,53.88,1.099,0.192,17.84,106.4943,15.9,16.91,92.6,0,110.6,13.29,16.71,15.9
"2009-07-26 00:58:00",1094805,8.61,51.75,0.667,0.087,17.81,106.4974,15.91,16.93,92.6,0,110.6,13.29,16.71,13.8
"2009-07-26 00:58:30",1094806,8.53,53.32,0.427,0.074,17.81,106.4999,15.91,16.91,92.6,0,110.6,13.29,16.72,15.3
"2009-07-26 00:59:00",1094807,8.49,54.12,0.744,0.184,17.89,106.4988,15.91,16.91,92.6,0,110.6,13.29,16.72,16.1
"2009-07-26 00:59:30",1094808,8.66,53.65,0.701,0.123,17.82,106.4968,15.91,16.9,92.5,0,110.6,13.29,16.71,15.7
"2009-07-26 01:00:00",1094809,8.55,53.77,0.502,0.205,17.75,106.4974,15.91,16.89,92.4,0,110.6,13.3,16.71,15.8
"2009-07-26 01:00:30",1094810,8.54,54.52,0.751,0.097,17.79,106.4991,15.91,16.89,92.3,0,110.6,13.3,16.72,16.5
"2009-07-26 01:01:00",1094811,8.18,54.51,0.599,0.095,17.75,106.5039,15.92,16.87,92.2,0,110.6,13.3,16.73,16.5
"2009-07-26 01:01:30",1094812,8.05,55.01,0.441,0.065,17.83,106.5084,15.94,16.87,92.1,0,110.6,13.3,16.74,17.0
"2009-07-26 01:02:00",1094813,8.16,55.36,0.284,0.055,17.96,106.5177,15.96,16.89,92,0,110.6,13.3,16.77,17.4
"2009-07-26 01:02:30",1094814,8.08,55.21,0.547,0.096,17.92,106.5219,15.97,16.9,91.9,0,110.6,13.3,16.78,17.2
"2009-07-26 01:03:00",1094815,8.43,55.94,0.618,0.473,17.77,106.5216,15.97,16.87,91.7,0,110.6,13.3,16.78,17.9
"2009-07-26 01:03:30",1094816,8.87,54.77,1.359,0.11,17.51,106.5225,15.97,16.89,91.5,0,110.6,13.3,16.78,16.8
"2009-07-26 01:04:00",1094817,9.07,48.01,1.102,0.49,16.72,106.5225,15.97,16.88,91.3,0,110.6,13.3,16.78,10.0
"2009-07-26 01:04:30",1094818,9.13,49.08,0.737,0.151,16.96,106.5115,15.94,16.88,91.3,0,110.6,13.3,16.75,11.1
"2009-07-26 01:05:00",1094819,9.24,49.76,0.51,0.101,17.16,106.489,15.89,16.89,91.1,0,110.6,13.3,16.69,11.8
"2009-07-26 01:05:30",1094820,8.97,52,1.343,0.188,17.54,106.4878,15.88,16.87,90.8,0,110.6,13.3,16.69,14.0
"2009-07-26 01:06:00",1094821,9.18,52.12,1.511,0.145,17.44,106.4648,15.82,16.85,90.5,0,110.6,13.3,16.63,14.1
"2009-07-26 01:06:30",1094822,8.73,54.99,1.255,0.232,17.63,106.4555,15.8,16.83,90.3,0,110.6,13.3,16.61,17.0
"2009-07-26 01:07:00",1094823,8.97,54.96,0.66,0.265,17.61,106.4558,15.8,16.81,90.1,0,110.5,13.3,16.61,17.0
"2009-07-26 01:07:30",1094824,8.88,55.6,0.95,0.187,17.51,106.4562,15.8,16.81,89.9,0,110.6,13.3,16.61,17.6
"2009-07-26 01:08:00",1094825,8.45,56.2,1.555,0.224,17.56,106.4456,15.77,16.78,89.8,0,110.6,13.3,16.58,18.2
"2009-07-26 01:08:30",1094826,8.19,55.33,1.465,0.193,17.59,106.4358,15.75,16.77,89.6,0,110.6,13.3,16.56,17.3
"2009-07-26 01:09:00",1094827,8.13,57.45,1.084,0.277,17.64,106.435,15.75,16.76,89.4,0,110.6,13.3,16.55,19.5
"2009-07-26 01:09:30",1094828,8.04,57.62,2.32,0.552,17.72,106.4363,15.75,16.73,89.2,0,110.6,13.3,16.56,19.6
"2009-07-26 01:10:00",1094829,8.28,59.75,0.761,0.118,17.6,106.4409,15.76,16.74,89.1,0,110.6,13.3,16.57,21.8
"2009-07-26 01:10:30",1094830,7.859,60.13,0.61,0.16,17.66,106.45,15.79,16.73,89,0,110.6,13.3,16.59,22.1
"2009-07-26 01:11:00",1094831,7.677,60.26,0.624,0.107,17.65,106.4538,15.8,16.74,88.9,0,110.6,13.3,16.60,22.3
"2009-07-26 01:11:30",1094832,7.726,60.33,1.021,0.122,17.67,106.4589,15.81,16.73,88.6,0,110.6,13.3,16.62,22.3
"2009-07-26 01:12:00",1094833,7.581,60.88,0.748,0.09,17.79,106.47,15.84,16.74,88.4,0,110.6,13.3,16.64,22.9
"2009-07-26 01:12:30",1094834,7.347,60.51,0.86,0.125,17.78,106.4816,15.87,16.74,88,0,110.6,13.3,16.67,22.5
"2009-07-26 01:13:00",1094835,7.263,60.36,0.879,0.083,17.72,106.4816,15.87,16.73,87.7,0,110.6,13.3,16.67,22.4
"2009-07-26 01:13:30",1094836,7.089,59.66,0.991,0.104,17.75,106.4819,15.87,16.75,87.5,0,110.6,13.3,16.67,21.7
"2009-07-26 01:14:00",1094837,6.906,61.38,0.837,0.082,17.83,106.4825,15.87,16.76,87.2,0,110.6,13.3,16.68,23.4
"2009-07-26 01:14:30",1094838,6.979,59.88,0.507,0.038,17.92,106.487,15.88,16.77,87,0,110.6,13.3,16.69,21.9
"2009-07-26 01:15:00",1094839,7.121,59.1,0.608,0.106,17.68,106.5076,15.93,16.78,86.6,0,110.6,13.3,16.74,21.1
"2009-07-26 01:15:30",1094840,7.117,57.4,0.596,0.102,17.55,106.5205,15.97,16.8,86.4,0,110.6,13.3,16.77,19.4
"2009-07-26 01:16:00",1094841,7.127,56.21,0.885,0.112,17.65,106.5208,15.97,16.81,86,0,110.6,13.31,16.77,18.2
"2009-07-26 01:16:30",1094842,7.195,55.37,0.458,0.056,17.69,106.5214,15.97,16.82,85.7,0,110.6,13.31,16.78,17.4
"2009-07-26 01:17:00",1094843,7.027,55.52,0.768,0.057,17.72,106.5285,15.99,16.85,85.4,0,110.5,13.31,16.79,17.5
"2009-07-26 01:17:30",1094844,6.937,54.68,0.856,0.086,17.6,106.5457,16.03,16.87,85.3,0,110.6,13.31,16.84,16.7
"2009-07-26 01:18:00",1094845,6.906,55.47,0.46,0.139,17.64,106.5555,16.06,16.88,85.1,0,110.6,13.31,16.86,17.5
"2009-07-26 01:18:30",1094846,6.795,56.47,0.527,0.067,17.59,106.557,16.06,16.91,84.8,0,110.6,13.31,16.87,18.5
"2009-07-26 01:19:00",1094847,7.088,54.8,0.566,0.192,17.32,106.5579,16.06,16.91,84.6,0,110.5,13.31,16.87,16.8
"2009-07-26 01:19:30",1094848,7.114,56.69,1.555,0.122,17.47,106.5585,16.06,16.91,84.8,0,110.6,13.31,16.87,18.7
"2009-07-26 01:20:00",1094849,6.834,54.97,2.016,0.183,17.36,106.5585,16.06,16.95,84.6,0,110.6,13.31,16.87,17.0
"2009-07-26 01:20:30",1094850,5.988,53.96,2.398,0.235,16.67,106.5585,16.06,16.98,85.1,0,110.5,13.31,16.87,16.0
"2009-07-26 01:21:00",1094851,5.306,53.44,3.224,0.339,16.62,106.5585,16.06,17,86,0,110.6,13.31,16.87,15.4
"2009-07-26 01:21:30",1094852,4.589,50.85,2.203,0.231,16.76,106.5585,16.06,17.02,86.7,0,110.5,13.31,16.87,12.8
"2009-07-26 01:22:00",1094853,5.158,51.47,2.389,0.221,16.81,106.5585,16.06,17.03,87.2,0,110.6,13.31,16.87,13.5
"2009-07-26 01:22:30",1094854,5.089,52.8,2.265,0.348,16.9,106.5585,16.06,17.04,87.6,0,110.5,13.31,16.87,14.8
"2009-07-26 01:23:00",1094855,4.917,48.45,2.103,0.369,16.83,106.5452,16.03,17.04,87.9,0,110.5,13.31,16.84,10.5
"2009-07-26 01:23:30",1094856,5.632,53.27,1.302,0.444,17.08,106.5247,15.98,17.05,88.1,0,110.6,13.31,16.78,15.3
"2009-07-26 01:24:00",1094857,6.013,52.96,1.669,0.323,17.06,106.5221,15.97,17.02,88.3,0,110.5,13.32,16.78,15.0
"2009-07-26 01:24:30",1094858,6.27,52.31,2.534,0.156,17.21,106.4957,15.9,17.01,88.3,0,110.5,13.32,16.71,14.3
"2009-07-26 01:25:00",1094859,6.458,51.67,1.073,0.183,17.4,106.4824,15.87,16.98,88.2,0,110.5,13.32,16.68,13.7
"2009-07-26 01:25:30",1094860,6.421,50.89,1.084,0.3,17.28,106.4571,15.8,16.92,87.9,0,110.5,13.32,16.61,12.9
"2009-07-26 01:26:00",1094861,6.774,52.49,1.183,0.124,17.53,106.4388,15.76,16.88,87.7,0,110.5,13.32,16.56,14.5
"2009-07-26 01:26:30",1094862,6.884,53.36,0.973,0.112,17.41,106.4232,15.72,16.84,87.4,0,110.5,13.32,16.52,15.4
"2009-07-26 01:27:00",1094863,6.555,52.04,1.183,0.141,17.12,106.4109,15.69,16.81,87.2,0,110.5,13.32,16.49,14.0
"2009-07-26 01:27:30",1094864,5.562,46.45,2.618,0.373,16.84,106.3894,15.63,16.78,87.3,0,110.5,13.31,16.44,8.5
"2009-07-26 01:28:00",1094865,5.393,46.74,2.66,0.602,16.91,106.3894,15.63,16.76,87.8,0,110.5,13.31,16.44,8.7
"2009-07-26 01:28:30",1094866,5.594,48.14,2.419,0.252,16.91,106.3847,15.62,16.74,88.2,0,110.5,13.31,16.42,10.1
"2009-07-26 01:29:00",1094867,5.144,46.79,2.77,0.305,16.86,106.3593,15.55,16.74,88.5,0,110.5,13.31,16.36,8.8
"2009-07-26 01:29:30",1094868,4.747,44.82,2.036,0.411,16.86,106.3556,15.54,16.71,88.7,0,110.5,13.31,16.35,6.8
"2009-07-26 01:30:00",1094869,3.707,39.16,3.952,0.429,16.89,106.3556,15.54,16.69,89,0,110.5,13.31,16.35,1.2
"2009-07-26 01:30:30",1094870,3.983,46.77,8.18,0.21,16.83,106.3554,15.54,16.67,89.4,0,110.5,13.31,16.35,8.8
"2009-07-26 01:31:00",1094871,3.753,41.53,7.907,0.482,16.89,106.3449,15.52,16.68,89.6,0,110.5,13.31,16.32,3.5
"2009-07-26 01:31:30",1094872,3.023,32.18,3.414,0.475,16.92,106.3227,15.46,16.66,89.9,0,110.5,13.31,16.27,354.2
"2009-07-26 01:32:00",1094873,3.801,37.93,5.272,0.432,16.86,106.3218,15.46,16.64,90.1,0,110.5,13.31,16.26,359.9
"2009-07-26 01:32:30",1094874,3.17,26.91,4.613,0.438,16.84,106.3218,15.46,16.63,90.3,0,110.5,13.32,16.26,348.9
"2009-07-26 01:33:00",1094875,3.789,34.36,1.924,0.488,16.82,106.3218,15.46,16.63,90.5,0,110.5,13.32,16.26,356.4
"2009-07-26 01:33:30",1094876,4.791,37.73,2.399,0.493,16.79,106.3159,15.44,16.6,90.7,0,110.5,13.32,16.25,359.7
"2009-07-26 01:34:00",1094877,5.497,43.32,2.363,0.585,16.86,106.2931,15.38,16.57,90.8,0,110.5,13.32,16.19,5.3
"2009-07-26 01:34:30",1094878,5.505,41.62,2.599,0.272,16.82,106.288,15.37,16.56,91,0,110.5,13.32,16.18,3.6
"2009-07-26 01:35:00",1094879,6.084,44.36,3.193,0.709,16.93,106.288,15.37,16.55,91.1,0,110.5,13.32,16.18,6.4
"2009-07-26 01:35:30",1094880,6.281,42.99,1.106,0.254,16.92,106.2841,15.36,16.53,91.2,0,110.5,13.32,16.17,5.0
"2009-07-26 01:36:00",1094881,6.673,48.17,1.836,0.248,16.94,106.2601,15.3,16.52,91.3,0,110.5,13.32,16.10,10.2
"2009-07-26 01:36:30",1094882,7.324,49.77,1.159,0.327,17.19,106.2548,15.29,16.48,91.4,0,110.5,13.32,16.09,11.8
"2009-07-26 01:37:00",1094883,7.83,50.94,0.352,0.126,17.36,106.2534,15.28,16.46,91.5,0,110.5,13.32,16.09,12.9
"2009-07-26 01:37:30",1094884,7.976,51.53,0.642,0.143,17.33,106.2295,15.22,16.42,91.5,0,110.5,13.33,16.03,13.5
"2009-07-26 01:38:00",1094885,8.42,46.53,1.387,0.104,17.13,106.2216,15.2,16.39,91.5,0,110.5,13.33,16.01,8.5
"2009-07-26 01:38:30",1094886,8.78,48.15,0.716,0.175,17.13,106.2219,15.2,16.36,91.6,0,110.5,13.33,16.01,10.2
"2009-07-26 01:39:00",1094887,9.14,46.14,0.931,0.115,17.15,106.2183,15.19,16.33,91.8,0,110.5,13.33,16.00,8.1
"2009-07-26 01:39:30",1094888,9.44,45.48,0.857,0.164,17.23,106.2023,15.15,16.31,91.8,0,110.5,13.33,15.96,7.5
"2009-07-26 01:40:00",1094889,8.74,48.23,1.933,0.266,17.28,106.1953,15.13,16.3,91.8,0,110.5,13.33,15.94,10.2
"2009-07-26 01:40:30",1094890,8.93,53.19,5.467,1.102,18.56,106.1977,15.14,16.34,91.9,0,110.5,13.29,15.94,15.2
"2009-07-26 01:41:00",1094891,9.99,46.65,7.092,1.258,18.42,106.1764,15.08,16.34,91.9,0,110.5,13.29,15.89,8.7
"2009-07-26 01:41:30",1094892,11.22,53.49,4.499,0.935,21.37,106.1666,15.06,16.49,91.9,0,110.5,13.29,15.86,15.5
"2009-07-26 01:42:00",1094893,10.39,50.65,6.657,1.336,19.66,106.1577,15.04,16.4,91.7,0,110.5,13.29,15.84,12.7
"2009-07-26 01:42:30",1094894,10.1,49.77,7.598,1.267,18.41,106.1393,14.99,16.32,91.4,0,110.5,13.28,15.79,11.8
"2009-07-26 01:43:00",1094895,9.81,49.05,6.89,1.444,17.78,106.1349,14.98,16.13,91.1,0,110.5,13.28,15.78,11.0
"2009-07-26 01:43:30",1094896,8.45,42.8,0.724,0.107,15.45,106.1097,14.91,15.99,90.8,0,110.5,13.32,15.72,4.8
"2009-07-26 01:44:00",1094897,8.3,43.45,1.004,0.129,15.61,106.111,14.92,15.96,90.6,0,110.5,13.32,15.72,5.5
"2009-07-26 01:44:30",1094898,8.78,43.75,0.929,0.174,15.79,106.0982,14.88,15.93,90.5,0,110.5,13.32,15.69,5.8
"2009-07-26 01:45:00",1094899,8.52,45.3,2.31,0.211,16.04,106.0827,14.84,15.9,90.5,0,110.5,13.32,15.65,7.3
"2009-07-26 01:45:30",1094900,8.23,47.71,1.019,0.077,16.2,106.0861,14.85,15.89,90.6,0,110.5,13.32,15.66,9.7
"2009-07-26 01:46:00",1094901,9.3,53.88,6.236,1.323,18.22,106.0863,14.85,15.98,91,0,110.5,13.28,15.66,15.9
"2009-07-26 01:46:30",1094902,9.28,46.95,5.559,1.267,17.73,106.0869,14.86,16.08,91.3,0,110.5,13.28,15.66,9.0
"2009-07-26 01:47:00",1094903,10.2,51.81,6.971,1.297,20.03,106.0779,14.83,16.18,91.6,0,110.5,13.28,15.64,13.8
"2009-07-26 01:47:30",1094904,10.56,51.18,6.712,1.183,19.05,106.0534,14.77,16.05,91.5,0,110.5,13.28,15.57,13.2
"2009-07-26 01:48:00",1094905,9.27,48.86,6.232,1.153,17.14,106.0509,14.76,15.96,91.4,0,110.5,13.28,15.57,10.9
"2009-07-26 01:48:30",1094906,9.15,50.08,7.007,1.453,17.27,106.0388,14.73,15.97,91.4,0,110.5,13.28,15.54,12.1
"2009-07-26 01:49:00",1094907,9.38,50.49,5.168,1.194,16.15,106.0202,14.68,15.78,91.3,0,110.5,13.28,15.49,12.5